Slayton, MN

10:57 PM CDT on May 22, 2017 (GMT -0500)
Slayton

Weather History for KDVP - May, 2013

Change the Weather History Date:

Thursday, May 2, 2013

  Actual Average (KOTG) Record (KOTG)
Temperature  
Mean Temperature 38 °F -  
Max Temperature 45 °F 62 °F 92 °F (1987)
Min Temperature 31 °F 41 °F 25 °F (1976)
Degree Days  
Heating Degree Days 27    
Moisture  
Dew Point 24 °F    
Average Humidity 61    
Maximum Humidity 81    
Minimum Humidity 40    
Precipitation  
Precipitation 0.00 in - - ()
Sea Level Pressure  
Sea Level Pressure 30.52 in    
Wind  
Wind Speed 20 mph (North)    
Max Wind Speed 29 mph    
Max Gust Speed 36 mph    
Visibility 10 miles    
Events      
Averages and records for this station are not official NWS values.
T = Trace of Precipitation, MM = Missing Value Source: NWS Daily Summary

Daily Weather History Graph

Daily Weather History Graph

Search for Another Location

Airport or City:

Trip Planner

Search our weather history database for the weather conditions in past years. The results will help you decide how hot, cold, wet, or windy it might be!

Date:

Astronomy

May. 02, 2013 Rise Set
Actual Time 6:12 AM CDT 8:27 PM CDT
Civil Twilight 5:41 AM CDT 8:59 PM CDT
Nautical Twilight 5:01 AM CDT 9:39 PM CDT
Astronomical Twilight 4:18 AM CDT 10:23 PM CDT
Moon 2:16 AM CDT (5/2) 1:03 PM CDT (5/2)
Length of Visible Light 15h 18m
Length of Day
14h 14m
Waning Gibbous, 47% of the Moon is Illuminated
May 2
Waning Gibbous
May 9
New
May 17
First Quarter
May 24
Full
May 31
Last Quarter

Hourly Weather History & Observations

Time (CDT) Temp. Windchill Dew Point Humidity Pressure Visibility Wind Dir Wind Speed Gust Speed Precip Events Conditions
12:13 AM 34.5 °F 23.4 °F 28.0 °F 77% 30.50 in 10.0 mi North 19.6 mph 26.5 mph N/A   Clear
12:33 AM 34.0 °F 23.0 °F 28.0 °F 79% 30.50 in 10.0 mi North 18.4 mph 28.8 mph N/A   Clear
12:54 AM 33.4 °F 21.4 °F 27.9 °F 80% 30.51 in 10.0 mi North 21.9 mph - N/A   Clear
1:14 AM 33.1 °F 21.2 °F 27.7 °F 81% 30.51 in 10.0 mi North 20.7 mph 26.5 mph N/A   Clear
1:32 AM 32.9 °F 20.4 °F 27.5 °F 81% 30.53 in 10.0 mi North 23.0 mph 28.8 mph N/A   Clear
1:53 AM 32.9 °F 21.6 °F 26.6 °F 78% 30.53 in 10.0 mi North 18.4 mph 24.2 mph N/A   Clear
2:13 AM 33.1 °F 21.2 °F 25.0 °F 72% 30.54 in 10.0 mi North 20.7 mph 27.6 mph N/A   Clear
2:33 AM 33.4 °F 21.4 °F 22.6 °F 65% 30.53 in 10.0 mi North 21.9 mph 29.9 mph N/A   Mostly Cloudy
2:54 AM 33.1 °F 21.2 °F 23.0 °F 66% 30.53 in 10.0 mi North 20.7 mph 31.1 mph N/A   Scattered Clouds
3:14 AM 32.9 °F 21.3 °F 23.2 °F 67% 30.53 in 10.0 mi North 19.6 mph 26.5 mph N/A   Mostly Cloudy
3:32 AM 32.9 °F 21.6 °F 22.8 °F 66% 30.53 in 10.0 mi North 18.4 mph 25.3 mph N/A   Overcast
3:53 AM 32.9 °F 21.3 °F 22.8 °F 66% 30.54 in 10.0 mi North 19.6 mph 25.3 mph N/A   Mostly Cloudy
4:13 AM 32.4 °F 21.7 °F 23.2 °F 69% 30.53 in 10.0 mi North 16.1 mph - N/A   Overcast
4:33 AM 32.2 °F 20.7 °F 23.0 °F 69% 30.53 in 10.0 mi North 18.4 mph 24.2 mph N/A   Scattered Clouds
4:53 AM 32.0 °F 21.6 °F 23.5 °F 71% 30.53 in 10.0 mi North 15.0 mph 20.7 mph N/A   Scattered Clouds
5:13 AM 32.0 °F 21.2 °F 24.4 °F 74% 30.55 in 10.0 mi North 16.1 mph 20.7 mph N/A   Clear
5:33 AM 32.0 °F 21.6 °F 25.0 °F 75% 30.55 in 10.0 mi North 15.0 mph 18.4 mph N/A   Mostly Cloudy
5:54 AM 31.6 °F 20.7 °F 25.0 °F 76% 30.55 in 10.0 mi North 16.1 mph - N/A   Mostly Cloudy
6:13 AM 31.5 °F 20.5 °F 25.2 °F 78% 30.56 in 10.0 mi North 16.1 mph - N/A   Mostly Cloudy
6:33 AM 31.6 °F 21.2 °F 25.0 °F 76% 30.57 in 10.0 mi North 15.0 mph - N/A   Mostly Cloudy
6:54 AM 31.6 °F 21.2 °F 24.6 °F 75% 30.56 in 10.0 mi North 15.0 mph - N/A   Overcast
7:14 AM 31.6 °F 22.1 °F 24.4 °F 75% 30.58 in 10.0 mi North 12.7 mph 18.4 mph N/A   Mostly Cloudy
7:33 AM 32.0 °F 21.2 °F 24.3 °F 73% 30.57 in 10.0 mi North 16.1 mph 23.0 mph N/A   Scattered Clouds
7:52 AM 32.0 °F 20.8 °F 24.4 °F 74% 30.58 in 10.0 mi North 17.3 mph - N/A   Scattered Clouds
8:14 AM 32.2 °F 21.1 °F 23.9 °F 72% 30.58 in 10.0 mi North 17.3 mph 21.9 mph N/A   Clear
8:33 AM 32.5 °F 21.9 °F 24.1 °F 71% 30.59 in 10.0 mi North 16.1 mph 21.9 mph N/A   Clear
8:53 AM 33.1 °F 21.9 °F 24.3 °F 70% 30.60 in 10.0 mi North 18.4 mph 23.0 mph N/A   Clear
9:13 AM 34.2 °F 23.3 °F 24.3 °F 67% 30.59 in 10.0 mi North 18.4 mph - N/A   Clear
9:34 AM 34.9 °F 23.9 °F 24.6 °F 66% 30.60 in 10.0 mi North 19.6 mph 27.6 mph N/A   Scattered Clouds
9:53 AM 35.2 °F 24.4 °F 25.5 °F 68% 30.59 in 10.0 mi North 19.6 mph 26.5 mph N/A   Scattered Clouds
10:13 AM 36.1 °F 24.7 °F 25.3 °F 65% 30.58 in 10.0 mi North 23.0 mph 29.9 mph N/A   Clear
10:33 AM 36.7 °F 25.4 °F 25.9 °F 65% 30.59 in 10.0 mi North 23.0 mph 31.1 mph N/A   Clear
10:53 AM 37.4 °F 25.6 °F 24.8 °F 60% 30.58 in 10.0 mi North 26.5 mph 32.2 mph N/A   Clear
11:14 AM 38.5 °F 27.3 °F 25.0 °F 58% 30.58 in 10.0 mi North 25.3 mph 32.2 mph N/A   Clear
11:33 AM 39.4 °F 28.5 °F 25.0 °F 56% 30.58 in 10.0 mi North 25.3 mph 32.2 mph N/A   Clear
11:54 AM 40.1 °F 29.0 °F 24.4 °F 54% 30.57 in 10.0 mi NNW 27.6 mph 32.2 mph N/A   Scattered Clouds
12:13 PM 39.9 °F 28.8 °F 24.3 °F 54% 30.56 in 10.0 mi North 27.6 mph 35.7 mph N/A   Clear
12:33 PM 41.0 °F 30.2 °F 24.3 °F 51% 30.56 in 10.0 mi NNW 27.6 mph 33.4 mph N/A   Clear
12:52 PM 41.0 °F 30.0 °F 23.2 °F 49% 30.55 in 10.0 mi North 28.8 mph 35.7 mph N/A   Clear
1:13 PM 42.1 °F 32.3 °F 22.6 °F 46% 30.54 in 10.0 mi NNW 24.2 mph 33.4 mph N/A   Clear
1:34 PM 43.2 °F 33.8 °F 22.3 °F 44% 30.53 in 10.0 mi NNW 24.2 mph 33.4 mph N/A   Clear
1:53 PM 43.0 °F 33.5 °F 19.9 °F 40% 30.53 in 10.0 mi NNW 24.2 mph 32.2 mph N/A   Clear
2:13 PM 44.6 °F 35.9 °F 21.4 °F 40% 30.52 in 10.0 mi NNW 23.0 mph 32.2 mph N/A   Clear
2:33 PM 43.9 °F 34.7 °F 21.6 °F 41% 30.52 in 10.0 mi North 24.2 mph 33.4 mph N/A   Clear
2:54 PM 43.9 °F 34.5 °F 21.0 °F 40% 30.52 in 10.0 mi North 25.3 mph 33.4 mph N/A   Clear
3:14 PM 45.3 °F 37.3 °F 22.5 °F 40% 30.51 in 10.0 mi NNW 20.7 mph 27.6 mph N/A   Clear
3:33 PM 45.0 °F 36.2 °F 22.1 °F 40% 30.50 in 10.0 mi North 24.2 mph 29.9 mph N/A   Clear
3:53 PM 44.8 °F 35.7 °F 21.7 °F 40% 30.49 in 10.0 mi North 25.3 mph 32.2 mph N/A   Clear
4:13 PM 45.0 °F 35.8 °F 22.3 °F 41% 30.48 in 10.0 mi North 26.5 mph 34.5 mph N/A   Clear
4:33 PM 45.0 °F 36.6 °F 21.7 °F 40% 30.48 in 10.0 mi North 21.9 mph 31.1 mph N/A   Clear
4:53 PM 44.6 °F 36.1 °F 21.4 °F 40% 30.47 in 10.0 mi NNW 21.9 mph 31.1 mph N/A   Clear
5:14 PM 44.8 °F 35.7 °F 22.3 °F 41% 30.47 in 10.0 mi North 25.3 mph 32.2 mph N/A   Clear
5:33 PM 44.6 °F 36.4 °F 22.6 °F 42% 30.47 in 10.0 mi North 20.7 mph 29.9 mph N/A   Clear
5:54 PM 43.9 °F 35.2 °F 22.1 °F 42% 30.47 in 10.0 mi NNW 21.9 mph 28.8 mph N/A   Clear
6:13 PM 43.9 °F 35.7 °F 22.8 °F 43% 30.47 in 10.0 mi North 19.6 mph 26.5 mph N/A   Clear
6:33 PM 43.2 °F 34.2 °F 22.1 °F 43% 30.46 in 10.0 mi North 21.9 mph 29.9 mph N/A   Clear
6:53 PM 42.4 °F 33.1 °F 22.5 °F 45% 30.46 in 10.0 mi NNW 23.0 mph 27.6 mph N/A   Clear
7:13 PM 41.5 °F 32.9 °F 22.8 °F 47% 30.46 in 10.0 mi North 18.4 mph 28.8 mph N/A   Clear
7:33 PM 41.0 °F 31.6 °F 22.8 °F 48% 30.46 in 10.0 mi North 20.7 mph 29.9 mph N/A   Clear
7:53 PM 40.1 °F 31.0 °F 23.4 °F 51% 30.46 in 10.0 mi North 18.4 mph 25.3 mph N/A   Clear
8:12 PM 39.2 °F 29.0 °F 23.4 °F 53% 30.46 in 10.0 mi North 21.9 mph - N/A   Clear
8:33 PM 37.9 °F 28.2 °F 23.9 °F 57% 30.46 in 10.0 mi North 18.4 mph 23.0 mph N/A   Clear
8:53 PM 37.0 °F 27.7 °F 23.9 °F 59% 30.46 in 10.0 mi NNW 16.1 mph - N/A   Clear
9:13 PM 36.5 °F 27.4 °F 24.3 °F 61% 30.47 in 10.0 mi North 15.0 mph - N/A   Clear
9:33 PM 35.8 °F 26.1 °F 24.4 °F 63% 30.48 in 10.0 mi North 16.1 mph - N/A   Clear
9:53 PM 34.9 °F 25.7 °F 24.6 °F 66% 30.47 in 10.0 mi NNW 13.8 mph - N/A   Clear
10:14 PM 34.0 °F 23.8 °F 25.0 °F 70% 30.47 in 10.0 mi NNW 16.1 mph - N/A   Clear
10:34 PM 33.4 °F 23.5 °F 25.2 °F 72% 30.46 in 10.0 mi NNW 15.0 mph - N/A   Clear
10:53 PM 32.9 °F 23.2 °F 25.3 °F 74% 30.46 in 10.0 mi NNW 13.8 mph - N/A   Clear
11:13 PM 32.4 °F 21.7 °F 25.3 °F 75% 30.46 in 10.0 mi NNW 16.1 mph - N/A   Clear
11:33 PM 32.0 °F 21.6 °F 25.2 °F 76% 30.45 in 10.0 mi North 15.0 mph - N/A   Clear
11:52 PM 32.0 °F 22.1 °F 25.2 °F 76% 30.45 in 10.0 mi North 13.8 mph 19.6 mph N/A   Clear